Temp
-4 -4 -4 -6 -5 -5 -5 -6 -5 -6 -5 -5 -7 -6 -6 -6 -6 -6 -6 -5 -5 -5 -5 -5 -5 -5 -5 -5 -5 -5 -5 -5 -5 -5 -5 -6 -6 -6 -5 -5 -5 -6 -6 -6
-4 -4 -4 -6 -5 -5 -5 -5 -6 -5 -6 -6 -5 -6 -6 -5 -6 -6 -5 -5 -5 -5 -5 -5 -5 -5 -5 -5 -5 -5 -5 -5 -5 -5 -5 -6 -6 -6 -5 -5 -6 -5 -6 -6
-4 -5 -5 -6 -6 -6 -6 -6 -6 -6 -6 -5 -5 -6 -5 -5 -6 -6 -6 -5 -5 -5 -5 -5 -5 -4 -4 -5 -5 -5 -5 -5 -6 -6 -6 -6 -6 -6 -6 -5 -6 -6 -7 -7
-5 -6 -6 -6 -6 -6 -6 -6 -6 -6 -6 -6 -6 -5 -5 -6 -6 -6 -6 -5 -5 -5 -5 -4 -4 -4 -5 -5 -5 -6 -5 -6 -6 -6 -6 -6 -7 -6 -6 -5 -6 -6 -7 -6
-6 -7 -7 -7 -6 -7 -6 -5 -6 -6 -6 -6 -5 -5 -6 -6 -6 -6 -6 -5 -5 -5 -5 -4 -4 -4 -4 -5 -5 -6 -6 -6 -6 -6 -6 -6 -6 -6 -7 -6 -5 -6 -7 -7
-7 -7 -7 -7 -7 -7 -6 -6 -6 -5 -6 -6 -5 -5 -5 -5 -6 -5 -6 -5 -5 -5 -5 -4 -4 -4 -4 -5 -5 -5 -6 -6 -6 -6 -6 -6 -6 -6 -7 -6 -6 -6 -7 -7
-7 -7 -7 -7 -7 -7 -7 -7 -6 -6 -5 -5 -4 -4 -6 -6 -5 -5 -5 -5 -5 -5 -5 -5 -4 -5 -4 -5 -5 -5 -6 -6 -6 -7 -7 -7 -6 -6 -7 -8 -7 -7 -7 -7
-7 -7 -7 -7 -6 -6 -7 -7 -6 -5 -4 -3 -5 -4 -5 -5 -5 -5 -6 -6 -6 -5 -5 -5 -5 -5 -5 -5 -5 -5 -5 -6 -6 -6 -6 -6 -6 -6 -6 -6 -7 -7 -6 -7
-7 -6 -6 -7 -7 -6 -6 -7 -6 -6 -5 -5 -6 -6 -6 -6 -5 -4 -6 -6 -6 -6 -5 -5 -5 -5 -5 -5 -5 -5 -6 -6 -6 -7 -7 -7 -6 -6 -6 -6 -6 -5 -7 -6
-7 -7 -6 -6 -7 -7 -6 -6 -6 -6 -6 -5 -5 -5 -5 -5 -5 -6 -6 -6 -5 -5 -5 -6 -5 -5 -5 -5 -5 -6 -6 -7 -7 -7 -7 -7 -7 -7 -7 -7 -6 -6 -7 -7
-8 -7 -7 -6 -7 -7 -7 -6 -6 -6 -5 -5 -5 -5 -6 -7 -6 -6 -6 -6 -6 -5 -5 -6 -6 -5 -5 -5 -6 -6 -7 -7 -7 -7 -7 -8 -8 -7 -7 -7 -7 -7 -7 -7
-8 -7 -7 -7 -7 -7 -7 -7 -6 -6 -6 -5 -5 -5 -5 -6 -6 -6 -6 -6 -7 -6 -5 -5 -6 -5 -5 -5 -6 -6 -6 -6 -7 -7 -6 -7 -8 -8 -7 -6 -6 -6 -7 -6
-8 -7 -7 -6 -6 -7 -6 -6 -7 -6 -6 -5 -5 -5 -5 -6 -7 -6 -6 -6 -6 -6 -5 -5 -6 -6 -5 -5 -6 -6 -6 -6 -6 -7 -7 -8 -8 -7 -7 -7 -6 -6 -6 -6
-8 -7 -7 -6 -6 -6 -6 -6 -6 -6 -6 -6 -5 -5 -5 -5 -6 -6 -6 -6 -6 -6 -5 -5 -6 -6 -6 -6 -6 -6 -6 -7 -7 -7 -7 -7 -7 -7 -7 -8 -7 -7 -7 -7
-8 -8 -7 -7 -7 -7 -6 -6 -7 -7 -6 -6 -5 -5 -5 -5 -6 -6 -7 -6 -6 -6 -6 -6 -6 -6 -6 -6 -6 -6 -7 -7 -7 -7 -7 -7 -7 -7 -7 -7 -8 -8 -9 -8
-7 -8 -8 -7 -7 -7 -7 -7 -6 -7 -7 -6 -6 -6 -6 -6 -6 -7 -7 -7 -6 -6 -6 -6 -6 -6 -6 -6 -6 -6 -7 -7 -7 -7 -6 -7 -7 -7 -7 -8 -8 -9 -9 -9
-7 -8 -8 -8 -7 -7 -7 -7 -6 -7 -7 -7 -6 -6 -6 -6 -7 -7 -7 -7 -7 -5 -6 -6 -6 -6 -7 -6 -7 -6 -7 -7 -7 -8 -7 -7 -7 -7 -7 -8 -8 -8 -8 -9
-8 -8 -8 -8 -7 -7 -7 -7 -7 -7 -6 -7 -7 -7 -7 -7 -7 -7 -7 -7 -7 -6 -6 -6 -6 -6 -7 -7 -7 -7 -7 -7 -7 -7 -7 -7 -7 -7 -7 -7 -7 -8 -8 -8
-8 -8 -8 -8 -7 -7 -7 -7 -7 -7 -7 -7 -7 -7 -7 -7 -7 -8 -7 -7 -7 -7 -7 -6 -6 -7 -7 -7 -6 -7 -7 -7 -7 -8 -8 -8 -8 -8 -7 -7 -7 -7 -7 -8
-8 -9 -8 -8 -8 -7 -7 -7 -7 -7 -7 -8 -8 -8 -7 -7 -8 -7 -7 -7 -7 -7 -7 -6 -6 -7 -7 -7 -7 -7 -7 -7 -7 -7 -8 -8 -8 -8 -8 -7 -7 -7 -7 -7
-9 -9 -7 -9 -8 -7 -8 -8 -8 -7 -8 -8 -8 -8 -8 -8 -7 -7 -7 -7 -7 -7 -7 -7 -6 -7 -7 -7 -7 -7 -7 -7 -7 -7 -8 -8 -8 -8 -8 -8 -8 -7 -7 -7
-9 -9 -9 -9 -8 -7 -8 -8 -8 -8 -7 -8 -8 -8 -7 -8 -8 -8 -8 -7 -7 -7 -7 -7 -7 -7 -7 -7 -7 -7 -7 -7 -7 -8 -8 -8 -8 -8 -8 -8 -8 -8 -7 -7
-10 -9 -9 -9 -8 -9 -9 -9 -9 -9 -9 -8 -8 -8 -8 -8 -8 -7 -7 -7 -7 -7 -7 -7 -7 -7 -7 -7 -7 -7 -7 -7 -7 -8 -8 -8 -8 -8 -8 -8 -7 -7 -8 -7
-10 -10 -9 -9 -8 -9 -9 -7 -8 -9 -9 -9 -8 -8 -8 -8 -8 -7 -7 -7 -7 -7 -7 -7 -7 -7 -8 -7 -7 -7 -7 -7 -7 -7 -8 -8 -8 -8 -8 -8 -8 -8 -8 -8
-9 -9 -10 -9 -9 -9 -9 -8 -8 -8 -8 -8 -8 -8 -8 -8 -8 -8 -7 -8 -7 -7 -7 -7 -7 -7 -7 -7 -7 -7 -7 -7 -8 -8 -8 -8 -8 -8 -8 -8 -8 -8 -8 -8
-9 -9 -10 -10 -8 -9 -8 -6 -7 -7 -7 -7 -8 -8 -8 -8 -8 -8 -8 -8 -8 -8 -8 -8 -7 -7 -7 -8 -8 -8 -8 -8 -8 -8 -8 -8 -8 -8 -8 -8 -8 -8 -8 -8
Height
5918 5920 5921 5926 5923 5922 5923 5923 5913 5907 5930 5925 5928 5926 5928 5929 5928 5926 5925 5924 5923 5922 5922 5923 5923 5923 5923 5923 5924 5924 5924 5924 5923 5923 5923 5923 5922 5922 5924 5927 5926 5925 5925 5926
5914 5917 5921 5928 5912 5924 5928 5921 5923 5911 5924 5930 5930 5929 5918 5929 5930 5928 5927 5925 5924 5924 5924 5924 5924 5923 5923 5923 5923 5923 5923 5922 5921 5921 5921 5920 5920 5921 5922 5925 5925 5927 5922 5925
5911 5917 5920 5925 5932 5927 5930 5933 5927 5921 5925 5930 5927 5925 5904 5928 5932 5931 5929 5927 5926 5925 5925 5926 5925 5925 5924 5923 5922 5922 5922 5921 5921 5920 5920 5918 5918 5919 5903 5920 5921 5927 5925 5926
5908 5914 5921 5922 5926 5927 5929 5932 5930 5926 5928 5930 5931 5930 5930 5929 5930 5932 5931 5928 5927 5926 5926 5926 5926 5925 5924 5923 5922 5922 5922 5921 5921 5921 5920 5918 5917 5920 5924 5921 5924 5924 5923 5928
5904 5911 5915 5917 5921 5922 5926 5924 5927 5928 5929 5927 5927 5922 5924 5923 5930 5926 5933 5930 5927 5927 5926 5926 5926 5925 5924 5923 5922 5922 5921 5921 5920 5921 5920 5918 5918 5919 5917 5921 5912 5925 5926 5929
5898 5906 5910 5913 5915 5916 5921 5924 5924 5924 5925 5926 5926 5919 5919 5918 5922 5920 5931 5931 5928 5927 5926 5927 5926 5925 5923 5923 5922 5921 5921 5921 5920 5920 5920 5919 5919 5921 5918 5920 5920 5920 5925 5926
5894 5897 5903 5906 5909 5912 5916 5919 5921 5924 5924 5926 5929 5924 5909 5912 5919 5922 5925 5930 5928 5928 5927 5926 5926 5925 5924 5922 5922 5921 5921 5920 5919 5919 5919 5918 5920 5921 5919 5913 5917 5921 5921 5926
5892 5895 5896 5899 5901 5906 5911 5915 5918 5921 5924 5929 5919 5917 5913 5921 5920 5917 5921 5922 5927 5927 5926 5926 5925 5925 5924 5923 5922 5921 5920 5919 5919 5919 5918 5917 5917 5919 5921 5919 5915 5917 5918 5913
5892 5895 5897 5896 5896 5900 5906 5908 5914 5917 5917 5920 5919 5912 5912 5915 5919 5919 5919 5919 5922 5925 5924 5925 5924 5924 5923 5922 5921 5921 5920 5919 5918 5919 5919 5917 5917 5917 5917 5915 5912 5908 5909 5902
5885 5891 5893 5895 5895 5895 5897 5907 5912 5913 5913 5915 5916 5914 5914 5913 5915 5921 5920 5919 5918 5922 5922 5923 5923 5923 5922 5921 5921 5920 5919 5918 5918 5917 5917 5915 5914 5915 5915 5914 5905 5912 5915 5898
5881 5887 5890 5892 5889 5892 5894 5896 5902 5908 5912 5914 5916 5913 5915 5910 5914 5921 5921 5918 5916 5917 5920 5921 5922 5922 5922 5921 5919 5918 5918 5917 5916 5915 5913 5913 5912 5911 5912 5913 5907 5915 5915 5919
5877 5881 5886 5886 5886 5887 5889 5893 5897 5901 5905 5908 5914 5909 5913 5913 5918 5919 5919 5916 5917 5913 5917 5918 5920 5920 5920 5919 5919 5918 5916 5915 5913 5910 5908 5908 5910 5909 5907 5909 5909 5908 5911 5916
5872 5874 5880 5883 5888 5884 5884 5887 5892 5896 5901 5902 5908 5912 5910 5911 5913 5914 5916 5914 5912 5911 5914 5915 5917 5917 5918 5918 5918 5916 5914 5913 5910 5908 5905 5907 5909 5909 5907 5905 5907 5907 5911 5912
5866 5870 5875 5879 5884 5885 5881 5882 5884 5890 5895 5899 5902 5908 5910 5901 5907 5913 5912 5908 5906 5907 5910 5912 5914 5915 5915 5917 5917 5915 5913 5912 5910 5910 5908 5908 5909 5908 5908 5906 5905 5906 5908 5909
5860 5864 5870 5874 5877 5879 5881 5879 5878 5882 5889 5895 5902 5906 5911 5904 5902 5902 5903 5904 5902 5905 5905 5909 5911 5912 5913 5915 5915 5914 5912 5911 5910 5909 5909 5908 5908 5907 5908 5907 5906 5906 5907 5909
5853 5856 5861 5865 5869 5874 5873 5875 5877 5876 5881 5886 5891 5896 5897 5898 5896 5896 5899 5897 5898 5903 5904 5907 5909 5909 5910 5912 5912 5912 5911 5911 5910 5909 5908 5904 5905 5906 5907 5907 5907 5906 5908 5911
5847 5851 5857 5860 5865 5868 5868 5869 5873 5874 5876 5881 5884 5890 5893 5893 5893 5891 5890 5893 5895 5895 5902 5904 5906 5907 5908 5910 5911 5911 5912 5912 5910 5908 5906 5907 5905 5906 5907 5907 5905 5908 5909 5906
5844 5847 5852 5856 5860 5861 5865 5867 5868 5871 5875 5878 5881 5882 5885 5888 5886 5887 5887 5887 5889 5892 5896 5901 5903 5904 5905 5909 5910 5910 5910 5911 5911 5908 5906 5905 5905 5906 5907 5907 5906 5908 5909 5909
5832 5829 5841 5847 5853 5858 5861 5862 5865 5867 5871 5873 5875 5878 5881 5883 5877 5876 5878 5881 5884 5888 5893 5897 5900 5901 5902 5906 5909 5909 5909 5910 5910 5907 5906 5905 5906 5907 5907 5908 5907 5906 5908 5907
5828 5822 5829 5840 5843 5849 5857 5857 5859 5861 5865 5864 5865 5868 5869 5867 5870 5870 5876 5878 5879 5882 5888 5892 5895 5898 5900 5902 5906 5907 5907 5908 5908 5907 5906 5906 5907 5908 5908 5908 5909 5909 5908 5907
5819 5821 5822 5828 5832 5838 5839 5845 5848 5855 5856 5856 5859 5861 5864 5863 5863 5867 5873 5874 5876 5879 5883 5888 5891 5895 5897 5900 5903 5905 5906 5907 5907 5906 5905 5905 5906 5907 5907 5908 5907 5909 5908 5909
5811 5818 5822 5827 5829 5834 5834 5840 5840 5844 5848 5849 5852 5854 5856 5858 5860 5866 5869 5871 5873 5876 5880 5884 5888 5891 5893 5896 5900 5902 5902 5902 5903 5904 5903 5904 5905 5905 5904 5905 5906 5906 5907 5907
5804 5812 5820 5825 5831 5824 5814 5828 5828 5835 5842 5847 5847 5849 5852 5852 5857 5861 5865 5868 5870 5873 5876 5880 5883 5885 5887 5890 5893 5895 5896 5898 5899 5899 5898 5898 5900 5901 5901 5901 5902 5903 5903 5904
5791 5805 5812 5818 5823 5814 5803 5813 5829 5827 5836 5838 5841 5844 5846 5849 5852 5856 5860 5863 5866 5869 5872 5875 5878 5879 5881 5886 5888 5889 5890 5891 5892 5893 5894 5894 5894 5896 5897 5897 5897 5898 5899 5898
5781 5787 5802 5805 5811 5806 5806 5813 5820 5825 5829 5831 5836 5839 5841 5843 5846 5850 5854 5858 5861 5864 5867 5869 5872 5874 5878 5880 5881 5883 5884 5884 5885 5886 5888 5888 5887 5889 5889 5890 5890 5891 5892 5892
5774 5782 5782 5803 5800 5801 5802 5806 5815 5817 5821 5825 5830 5832 5835 5836 5841 5844 5848 5853 5856 5859 5862 5864 5866 5869 5871 5873 5875 5876 5877 5878 5879 5879 5880 5879 5879 5878 5880 5881 5883 5885 5884 5884
Wind_Speed
15 13 4 7 20 18 17 7 14 17 19 5 7 5 8 9 8 5 4 5 6 4 4 6 6 5 3 2 3 3 4 4 5 5 5 6 7 9 10 8 2 2 5 0
21 16 13 8 24 5 5 12 3 7 14 7 14 3 15 8 7 8 7 6 7 7 6 6 6 6 5 3 3 4 2 2 2 3 4 6 7 8 6 8 3 6 6 11
23 16 13 15 15 23 10 10 20 26 2 4 16 2 4 3 4 7 5 5 5 6 7 6 6 5 3 2 2 4 4 4 5 5 4 6 8 8 7 8 2 4 9 10
25 22 18 18 19 15 10 12 15 12 11 13 12 14 12 12 6 3 4 4 2 3 5 4 3 4 3 2 3 4 4 4 6 6 7 5 6 4 7 11 10 10 9 4
26 21 26 23 22 18 14 19 26 12 14 18 12 23 19 14 12 8 5 6 5 4 3 3 3 6 9 3 3 5 6 3 5 6 6 5 5 4 7 10 17 9 7 5
29 23 24 22 22 22 17 15 16 19 15 16 13 29 28 21 13 7 3 6 10 10 5 5 6 10 12 4 2 4 4 4 4 6 6 3 2 1 8 6 4 8 8 9
29 33 25 27 27 23 20 21 16 13 15 15 9 19 16 22 28 5 1 4 7 10 5 4 10 12 12 8 4 2 1 2 2 3 2 2 1 2 6 5 5 10 12 12
19 24 33 27 32 27 23 24 20 13 12 13 12 30 23 11 17 3 3 14 8 8 10 9 11 10 11 11 9 9 5 4 3 5 5 6 6 5 4 5 12 15 9 21
14 16 16 21 26 31 27 27 23 23 24 24 20 24 26 3 8 4 2 13 19 10 11 9 8 7 11 9 9 6 5 7 7 6 6 9 9 8 7 9 11 14 13 17
20 16 17 21 21 26 34 25 22 24 28 27 25 20 13 11 1 8 14 16 21 5 12 8 6 10 12 12 10 10 9 6 7 10 10 10 11 8 9 11 18 13 12 18
20 14 12 19 25 24 26 35 31 25 25 25 25 20 3 7 5 11 10 17 18 11 10 10 10 14 11 11 9 8 10 11 12 15 13 12 8 9 9 10 17 12 13 6
24 19 15 17 15 18 24 23 31 29 25 24 23 14 26 15 10 11 9 14 15 23 13 14 14 16 10 10 7 8 11 13 13 12 17 14 11 8 9 10 11 13 13 9
17 24 19 18 18 18 16 25 25 26 27 27 23 26 25 22 6 13 11 15 23 24 19 18 17 18 11 8 4 7 14 16 10 8 3 4 7 7 8 11 10 12 12 12
28 21 19 15 9 15 23 22 23 26 25 26 25 21 25 31 12 11 13 18 24 27 21 17 15 14 11 8 4 9 14 8 3 4 3 3 2 4 6 10 14 11 11 11
32 21 21 21 17 15 14 16 19 27 27 24 17 18 19 19 19 20 21 26 26 22 16 14 14 14 13 7 8 11 11 6 3 4 2 3 1 1 5 6 9 9 10 14
31 27 22 23 20 17 20 21 22 22 27 30 29 25 22 21 13 18 21 23 30 22 17 16 14 11 12 8 10 9 10 7 4 3 2 4 2 2 4 5 5 6 6 8
24 24 21 20 15 16 20 15 18 17 21 23 28 22 22 26 23 25 24 25 31 36 21 19 14 10 11 7 5 8 7 4 5 2 5 4 4 4 5 4 5 5 10 12
24 24 23 20 16 23 18 11 14 19 15 18 22 23 24 18 26 18 22 25 26 26 22 19 16 12 15 7 7 10 9 5 5 5 11 12 11 9 7 4 4 3 4 3
36 37 32 25 21 16 17 16 15 18 17 17 20 18 15 21 25 24 29 24 22 20 23 21 18 14 13 9 9 12 12 7 5 8 12 15 14 12 12 10 8 6 4 3
24 16 37 33 26 26 15 20 19 18 16 23 28 29 28 35 26 29 20 14 13 24 24 24 17 19 11 11 11 9 11 7 9 11 12 13 14 15 11 10 12 12 9 8
35 28 27 37 24 30 20 22 26 32 27 26 21 22 36 35 36 32 25 13 10 22 23 25 20 20 19 12 10 12 11 11 12 13 13 13 11 15 15 13 9 13 14 14
50 40 35 27 25 33 32 34 28 25 32 24 23 23 25 39 33 24 10 9 9 17 22 22 22 20 21 16 12 13 16 15 15 14 14 13 16 19 15 12 14 14 15 17
36 38 37 31 29 30 34 33 36 25 34 31 22 20 22 32 33 26 16 11 13 16 18 19 19 21 23 21 19 20 25 21 22 19 17 22 23 22 19 15 16 16 19 20
40 33 35 29 34 37 42 35 26 37 24 23 21 22 18 26 34 30 24 18 16 18 21 21 21 22 24 23 26 29 31 30 29 26 27 28 29 29 27 25 23 22 23 23
46 44 41 39 32 52 53 43 40 38 36 27 25 28 22 20 32 34 32 21 18 17 16 23 23 20 19 18 23 25 22 24 27 29 31 34 35 35 35 33 30 29 26 28
48 43 50 46 53 50 50 42 37 36 33 26 25 27 22 19 29 30 28 25 23 22 19 19 26 27 23 20 19 23 26 30 33 34 37 38 40 42 40 36 36 33 33 33
Wind_Direction
214 220 196 166 276 307 320 339 13 43 309 60 278 330 48 35 37 19 352 53 52 52 56 58 53 42 22 0 328 315 296 289 268 260 262 272 280 277 280 284 278 13 313 274
214 211 153 201 271 249 256 353 318 221 309 306 256 258 224 15 41 64 75 72 69 61 54 59 53 52 45 24 338 323 304 329 340 284 281 282 282 280 252 279 222 28 56 150
216 210 201 189 244 263 250 217 253 264 219 296 276 352 253 267 63 76 81 87 88 90 82 62 67 61 67 15 320 300 307 336 340 342 312 286 267 258 280 250 73 23 75 157
215 180 233 214 232 242 212 224 272 294 250 268 302 294 259 249 188 45 58 68 59 93 97 76 44 23 20 343 348 339 320 341 355 0 3 309 275 228 193 200 176 139 121 114
217 218 208 224 229 233 201 248 216 254 266 266 290 283 276 250 185 119 11 53 46 32 100 86 14 342 348 320 21 18 353 344 5 13 30 350 282 224 241 200 194 173 148 164
215 209 234 224 242 227 225 246 284 263 254 253 272 285 285 285 271 159 243 13 31 25 85 49 12 1 2 359 55 53 23 355 28 19 17 23 352 266 247 185 219 196 198 196
225 208 207 235 231 236 223 229 241 257 248 265 293 251 262 291 307 257 296 335 1 12 352 8 354 346 356 346 346 32 79 26 18 22 346 280 183 137 287 298 206 223 221 217
235 234 226 232 232 222 225 232 226 231 238 257 236 250 248 324 334 265 263 302 318 335 348 336 338 336 349 351 333 329 345 1 344 315 290 266 251 201 187 232 234 223 222 218
214 254 260 263 251 238 214 237 227 232 239 272 284 293 296 101 338 322 291 294 307 294 339 318 333 346 351 343 324 306 322 329 318 318 313 298 285 266 238 248 244 252 257 258
192 231 226 241 233 238 230 218 230 240 243 250 251 262 269 305 43 83 199 274 295 286 325 324 318 332 339 331 318 309 301 304 303 288 289 278 271 270 268 253 260 259 271 10
224 218 231 222 235 224 233 224 208 224 239 246 261 276 278 264 130 205 246 285 268 286 315 312 312 311 326 321 316 315 310 308 311 293 283 250 251 266 266 261 274 262 273 270
220 211 215 241 246 240 219 237 224 225 228 229 240 269 265 227 250 265 234 255 249 274 288 303 297 305 326 318 316 308 313 321 313 302 277 232 230 244 284 274 287 279 267 253
216 214 217 223 242 261 251 228 224 234 229 223 236 240 260 241 294 219 261 245 253 267 275 289 285 295 315 302 313 317 323 340 311 354 58 181 265 266 278 301 303 299 272 258
203 205 225 212 223 255 272 280 240 215 232 235 232 242 264 265 184 221 250 262 267 278 277 276 272 281 306 285 294 330 334 359 333 353 43 84 95 287 277 315 319 315 263 237
214 210 203 215 225 249 231 259 268 217 218 226 234 246 240 283 269 221 241 234 250 271 256 254 265 272 283 243 313 332 332 316 359 341 295 269 217 3 288 309 311 316 250 222
230 214 194 209 230 237 247 238 249 232 216 216 214 225 222 235 254 263 240 252 247 253 244 233 257 253 246 255 305 328 326 295 297 323 193 332 320 339 319 301 287 284 239 236
236 222 217 228 225 231 252 236 220 242 222 226 224 228 224 238 251 251 247 256 249 262 242 228 240 218 231 243 230 304 302 313 306 42 33 48 353 345 338 314 286 278 297 208
219 220 220 226 224 239 235 235 236 213 223 220 229 230 230 233 243 253 262 273 264 246 207 215 225 230 223 202 225 277 276 287 288 15 30 24 20 359 329 290 281 310 270 246
216 194 215 211 230 236 224 220 215 216 215 216 214 212 233 239 255 233 235 245 257 213 202 210 226 224 214 234 266 261 267 284 320 0 19 18 10 352 340 307 282 278 263 246
224 253 198 195 210 223 221 221 233 218 230 225 230 213 211 219 233 247 229 229 229 200 205 210 223 229 223 273 259 260 265 300 340 353 360 10 357 351 329 323 306 286 267 255
219 231 236 198 194 240 197 225 221 227 210 229 246 244 220 229 237 240 227 188 209 207 206 214 230 228 240 247 255 271 296 307 319 325 335 338 325 335 326 328 320 299 287 276
221 224 218 236 230 231 232 215 198 211 228 223 241 249 238 227 231 235 178 187 204 208 208 221 233 237 240 252 249 266 276 278 285 292 298 298 310 321 316 306 316 316 298 282
217 224 223 224 222 257 262 231 229 235 240 253 263 264 261 222 220 225 205 214 206 212 213 223 230 239 245 250 254 266 270 275 277 281 282 288 298 306 309 303 301 304 312 298
211 217 223 227 208 253 260 233 222 227 232 243 257 264 250 230 221 227 212 222 217 220 226 228 233 247 253 252 256 265 273 275 284 278 287 289 288 293 296 293 293 299 301 299
199 200 219 225 210 231 240 234 239 242 250 248 255 256 248 247 221 227 228 229 231 228 226 227 222 241 250 253 254 258 265 268 271 274 279 288 287 287 285 290 286 287 289 292
201 204 198 229 230 220 234 237 235 239 244 247 234 246 242 244 214 215 219 221 220 227 241 230 236 251 259 261 268 266 263 264 270 276 282 282 280 279 280 281 280 277 275 282